This is the latest recevied weather packets stored in our database for station/object KA8OAD-10. If no packets are shown the sender has not sent any weather packets the latest 10 day(s).
| Time | Temp. | Humidity | Pressure | Rain* | Wind** | Luminosity | Snow |
|---|---|---|---|---|---|---|---|
| 1777808850 | 1.11° C | 90% | 1015.2 hPa | 0 mm | - | 39 W/m² | - |
| 1777807953 | 0.56° C | 89% | 1014.9 hPa | 0 mm | - | 77 W/m² | - |
| 1777807652 | 0.56° C | 88% | 1014.9 hPa | 0 mm | - | 54 W/m² | - |
| 1777806153 | 0° C | 87% | 1014.7 hPa | 0 mm | - | 14 W/m² | - |
| 1777805551 | 0.56° C | 87% | 1014.5 hPa | 0 mm | - | 11 W/m² | - |
| 1777805251 | 0.56° C | 87% | 1014.5 hPa | 0 mm | - | 9 W/m² | - |
| 1777803752 | 0.56° C | 87% | 1014.3 hPa | 0 mm | - | 0 W/m² | - |
| 1777802550 | 0.56° C | 86% | 1014.3 hPa | 0 mm | - | 0 W/m² | - |
| 1777802249 | 0.56° C | 86% | 1014.2 hPa | 0 mm | - | 0 W/m² | - |
| 1777801953 | 1.11° C | 86% | 1014.2 hPa | 0 mm | - | 0 W/m² | - |
| 1777801652 | 1.11° C | 86% | 1014.3 hPa | 0 mm | - | 0 W/m² | - |
| 1777801352 | 1.11° C | 86% | 1014.3 hPa | 0 mm | - | 0 W/m² | - |
| 1777800450 | 1.11° C | 86% | 1014.3 hPa | 0 mm | - | 0 W/m² | - |
| 1777800150 | 1.11° C | 86% | 1014.3 hPa | 0 mm | - | 0 W/m² | - |
| 1777799252 | 1.11° C | 85% | 1014.4 hPa | 0 mm | - | 0 W/m² | - |
| 1777798049 | 1.11° C | 85% | 1014.4 hPa | 0 mm | - | 0 W/m² | - |
| 1777797753 | 1.11° C | 85% | 1014.5 hPa | 0 mm | - | 0 W/m² | - |
| 1777797152 | 1.11° C | 85% | 1014.5 hPa | 0 mm | - | 0 W/m² | - |
| 1777795950 | 1.67° C | 84% | 1014.4 hPa | 0 mm | - | 0 W/m² | - |
| 1777794151 | 1.67° C | 83% | 1014.4 hPa | 0 mm | - | 0 W/m² | - |
| 1777793550 | 2.22° C | 82% | 1014.4 hPa | 0 mm | - | 0 W/m² | - |
| 1777791751 | 2.22° C | 81% | 1014.5 hPa | 0 mm | - | 0 W/m² | - |
| 1777791150 | 2.22° C | 80% | 1014.5 hPa | 0 mm | - | 0 W/m² | - |
| 1777790853 | 2.78° C | 80% | 1014.5 hPa | 0 mm | - | 0 W/m² | - |
| 1777790552 | 2.78° C | 80% | 1014.5 hPa | 0 mm | - | 0 W/m² | - |
* Rain latest hour (hover to see other rain measurements)
** Current wind speed in m/s (hover to see current wind gust speed)